Location: Cueva de Ratón
(10.1013°N, 67.6606°W)
Time: 12:23:35
(UTC+00:00)

Hubble Space Telescope - Pass Details

Date: 02 December 2023
Orbit: 516 x 519 km, 28.5° (Epoch: 26 February)

Event Time Altitude Azimuth Distance (km) Brightness Sun altitude
Rises 22:45:15 0° 323° (NW) 2,615 4.5 -9.5°
Reaches altitude 10° 22:49:16 10° 3° (N) 1,732 3.1 -10.5°
Maximum altitude 22:50:13 11° 17° (NNE) 1,689 3.0 -10.7°
Drops below altitude 10° 22:51:15 10° 32° (NNE) 1,739 2.9 -10.9°
Enters shadow 22:51:19 10° 32° (NNE) 1,746 2.9 -10.9°
